sat.trackr.live / text

‹ back to catalog

STARLINK-33840

NORAD 63682 · 2025-085U

PAYLOAD ACTIVE UNKNOWN

§ Identity

Operator
Country
US
Launch date
2025-04-28
Launch site
AFETR
Launch vehicle
Mass (kg)
RCS (m²)

Purposes: comms

External: N2YO · Heavens-Above · Gunter

§ Orbital elements

Epoch: 2026-05-24T20:04:04.040832Z

Period
94.27 min
Inclination
42.9996°
Eccentricity
0.0001116
Mean motion
15.27593388 rev/d
Perigee alt
482.2 km
Apogee alt
483.8 km
Semi-major
6,861.1 km
B*
5.3985e-4
RAAN
321.0445°
Arg perigee
274.9761°
Mean anomaly
85.0964°
Rev number
6,051

§ Raw data

STARLINK-338401 63682U 25085U   26144.83615788  .00014629  00000+0  53985-3 0  99922 63682  42.9996 321.0445 0001116 274.9761  85.0964 15.27593388 60515

JSON: /api/v1/satellites/63682 · /tle

For live sub-satellite position, see the globe view (requires WebGL).

§ Visibility from observer

Set your observer location to see the next 7 days of passes ≥ 10°. The values pass through the URL so the page stays shareable.

No JS? Fill the form by hand. The geolocation button needs JavaScript.